When you browse on this site, cookies collect data to enhance your experience and personalize the content and advertising you see.
Visit our Privacy Policy to learn more. By continuing to use the site, you agree to this use of cookies and data.
  • In Lithuania
  • List of Countries
  • For 7 days
  • Water Temperature
  • Satellite Maps
  • Weather Map
  • Weather Widgets
  • user-avatar
    Login

    Hourly Weather Satif

    Today, 20 February, Wednesday

    Time Temperature Precipitation Wind Pressure Humidity
    00:00 +5°C° 0 mm 1 mps 672 mmHg 55%
    01:00 +5°C° 0 mm 1 mps 671 mmHg 55%
    02:00 +4°C° 0 mm 1 mps 671 mmHg 56%
    03:00 +3°C° 0 mm 0 mps 671 mmHg 56%
    04:00 +3°C° 0 mm 0 mps 671 mmHg 56%
    05:00 +2°C° 0 mm 0 mps 671 mmHg 56%
    06:00 +2°C° 0 mm 0 mps 671 mmHg 56%
    07:00 +4°C° 0 mm 0 mps 672 mmHg 50%
    08:00 +6°C° 0 mm 0 mps 673 mmHg 43%
    09:00 +9°C° 0 mm 0 mps 674 mmHg 37%
    10:00 +11°C° 0 mm 1 mps 674 mmHg 34%
    11:00 +12°C° 0 mm 1 mps 675 mmHg 32%
    12:00 +13°C° 0 mm 1 mps 675 mmHg 30%
    13:00 +13°C° 0 mm 1 mps 675 mmHg 31%
    14:00 +13°C° 0 mm 2 mps 675 mmHg 32%
    15:00 +13°C° 0 mm 2 mps 675 mmHg 33%
    16:00 +12°C° 0 mm 2 mps 675 mmHg 44%
    17:00 +9°C° 0 mm 2 mps 674 mmHg 55%
    18:00 +8°C° 0 mm 3 mps 674 mmHg 66%
    19:00 +7°C° 0 mm 2 mps 674 mmHg 72%
    20:00 +6°C° 0 mm 2 mps 675 mmHg 79%
    21:00 +6°C° 0 mm 1 mps 675 mmHg 86%
    22:00 +6°C° 0 mm 1 mps 675 mmHg 87%
    23:00 +6°C° 0 mm 1 mps 675 mmHg 87%

    Tomorrow, 21 February, Thursday

    Time Temperature Precipitation Wind Pressure Humidity
    00:00 +4°C° 0 mm 0 mps 675 mmHg 88%
    01:00 +4°C° 0 mm 0 mps 675 mmHg 88%
    02:00 +4°C° 0 mm 0 mps 675 mmHg 88%
    03:00 +3°C° 0 mm 0 mps 675 mmHg 88%
    04:00 +3°C° 0 mm 0 mps 675 mmHg 89%
    05:00 +3°C° 0 mm 0 mps 675 mmHg 89%
    06:00 +3°C° 0 mm 0 mps 675 mmHg 90%
    07:00 +4°C° 0 mm 0 mps 676 mmHg 83%
    08:00 +6°C° 0 mm 0 mps 677 mmHg 76%
    09:00 +9°C° 0 mm 1 mps 678 mmHg 69%
    10:00 +9°C° 0 mm 0 mps 678 mmHg 61%
    11:00 +10°C° 0 mm 0 mps 678 mmHg 54%
    12:00 +12°C° 0 mm 0 mps 678 mmHg 47%
    13:00 +13°C° 0 mm 1 mps 678 mmHg 46%
    14:00 +13°C° 0 mm 1 mps 678 mmHg 46%
    15:00 +13°C° 0 mm 2 mps 678 mmHg 45%
    16:00 +12°C° 0 mm 2 mps 678 mmHg 54%
    17:00 +10°C° 0 mm 2 mps 678 mmHg 64%
    18:00 +9°C° 0 mm 2 mps 678 mmHg 73%
    19:00 +8°C° 0 mm 2 mps 678 mmHg 79%
    20:00 +8°C° 0 mm 1 mps 678 mmHg 85%
    21:00 +7°C° 0 mm 1 mps 679 mmHg 91%
    22:00 +6°C° 0 mm 0 mps 678 mmHg 92%
    23:00 +5°C° 0 mm 0 mps 678 mmHg 92%

    Day after tomorrow, 22 February, Friday

    Time Temperature Precipitation Wind Pressure Humidity
    00:00 +4°C° 0 mm 0 mps 678 mmHg 93%
    01:00 +4°C° 0 mm 0 mps 678 mmHg 93%
    02:00 +4°C° 0 mm 0 mps 678 mmHg 93%
    03:00 +3°C° 0 mm 0 mps 677 mmHg 92%
    04:00 +3°C° 0 mm 0 mps 677 mmHg 91%
    05:00 +2°C° 0 mm 0 mps 677 mmHg 90%
    06:00 +2°C° 0 mm 0 mps 677 mmHg 88%
    07:00 +5°C° 0 mm 1 mps 678 mmHg 76%
    08:00 +7°C° 0 mm 1 mps 679 mmHg 64%
    09:00 +9°C° 0 mm 1 mps 680 mmHg 52%
    10:00 +10°C° 0 mm 1 mps 680 mmHg 44%
    11:00 +10°C° 0 mm 2 mps 680 mmHg 37%
    12:00 +13°C° 0 mm 2 mps 680 mmHg 29%
    13:00 +12°C° 0 mm 3 mps 680 mmHg 31%
    14:00 +12°C° 0 mm 3 mps 679 mmHg 32%
    15:00 +13°C° 0 mm 3 mps 679 mmHg 34%
    16:00 +11°C° 0 mm 3 mps 678 mmHg 44%
    17:00 +9°C° 0 mm 2 mps 678 mmHg 55%
    18:00 +7°C° 0 mm 2 mps 678 mmHg 65%
    19:00 +7°C° 0 mm 2 mps 678 mmHg 72%
    20:00 +7°C° 0 mm 1 mps 678 mmHg 78%
    21:00 +6°C° 0 mm 1 mps 678 mmHg 84%
    22:00 +5°C° 0 mm 1 mps 677 mmHg 83%
    23:00 +5°C° 0 mm 1 mps 677 mmHg 82%

    23 February, Saturday

    Time Temperature Precipitation Wind Pressure Humidity
    00:00 +5°C° 0 mm 1 mps 677 mmHg 81%
    01:00 +4°C° 0 mm 1 mps 676 mmHg 79%
    02:00 +4°C° 0 mm 1 mps 676 mmHg 77%
    03:00 +4°C° 0 mm 1 mps 676 mmHg 75%
    04:00 +3°C° 0 mm 1 mps 676 mmHg 76%
    05:00 +3°C° 0 mm 1 mps 676 mmHg 77%
    06:00 +2°C° 0 mm 1 mps 676 mmHg 77%
    07:00 +4°C° 0 mm 1 mps 676 mmHg 65%
    08:00 +7°C° 0 mm 1 mps 677 mmHg 53%
    09:00 +8°C° 0 mm 2 mps 678 mmHg 41%
    10:00 +9°C° 0 mm 2 mps 678 mmHg 36%
    11:00 +11°C° 0 mm 3 mps 678 mmHg 31%
    12:00 +13°C° 0 mm 4 mps 679 mmHg 26%
    13:00 +13°C° 0 mm 4 mps 678 mmHg 27%
    14:00 +13°C° 0 mm 5 mps 678 mmHg 29%
    15:00 +13°C° 0 mm 5 mps 678 mmHg 30%
    16:00 +11°C° 0 mm 4 mps 677 mmHg 39%
    17:00 +9°C° 0 mm 3 mps 677 mmHg 47%
    18:00 +7°C° 0 mm 2 mps 676 mmHg 55%
    19:00 +6°C° 0 mm 2 mps 676 mmHg 58%
    20:00 +6°C° 0 mm 2 mps 677 mmHg 60%
    21:00 +6°C° 0 mm 1 mps 677 mmHg 62%
    22:00 +6°C° 0 mm 1 mps 676 mmHg 61%
    23:00 +5°C° 0 mm 1 mps 676 mmHg 60%

    24 February, Sunday

    Time Temperature Precipitation Wind Pressure Humidity
    00:00 +5°C° 0 mm 1 mps 676 mmHg 59%
    01:00 +5°C° 0 mm 1 mps 676 mmHg 58%
    02:00 +4°C° 0 mm 1 mps 675 mmHg 57%
    03:00 +4°C° 0 mm 1 mps 675 mmHg 56%
    04:00 +3°C° 0 mm 1 mps 675 mmHg 57%
    05:00 +3°C° 0 mm 1 mps 675 mmHg 58%
    06:00 +3°C° 0 mm 1 mps 675 mmHg 59%
    07:00 +5°C° 0 mm 1 mps 676 mmHg 54%
    08:00 +6°C° 0 mm 2 mps 676 mmHg 49%
    09:00 +8°C° 0 mm 2 mps 677 mmHg 44%
    10:00 +9°C° 0 mm 2 mps 677 mmHg 43%
    11:00 +10°C° 0 mm 3 mps 678 mmHg 41%
    12:00 +11°C° 0 mm 3 mps 678 mmHg 40%
    13:00 +11°C° 0 mm 4 mps 677 mmHg 41%
    14:00 +11°C° 0 mm 4 mps 677 mmHg 43%
    15:00 +10°C° 0 mm 5 mps 677 mmHg 44%
    16:00 +10°C° 0 mm 4 mps 677 mmHg 55%
    17:00 +7°C° 0 mm 4 mps 676 mmHg 66%
    18:00 +7°C° 0 mm 3 mps 676 mmHg 76%
    19:00 +5°C° 0 mm 3 mps 676 mmHg 81%
    20:00 +6°C° 0 mm 2 mps 677 mmHg 87%
    21:00 +5°C° 0 mm 2 mps 677 mmHg 92%
    22:00 +5°C° 0 mm 2 mps 677 mmHg 92%
    23:00 +4°C° 0 mm 2 mps 677 mmHg 91%

    25 February, Monday

    Time Temperature Precipitation Wind Pressure Humidity
    00:00 +4°C° 0 mm 2 mps 677 mmHg 90%
    01:00 +3°C° 0 mm 2 mps 677 mmHg 91%
    02:00 +3°C° 0 mm 2 mps 676 mmHg 91%
    03:00 +2°C° 0 mm 2 mps 676 mmHg 91%
    04:00 +2°C° 0 mm 2 mps 676 mmHg 90%
    05:00 +1°C° 0 mm 2 mps 676 mmHg 88%
    06:00 +2°C° 0 mm 1 mps 676 mmHg 87%
    07:00 +2°C° 0 mm 2 mps 676 mmHg 78%
    08:00 +4°C° 0 mm 2 mps 677 mmHg 69%
    09:00 +6°C° 0 mm 2 mps 677 mmHg 60%
    10:00 +7°C° 0 mm 3 mps 677 mmHg 53%
    11:00 +8°C° 0 mm 3 mps 677 mmHg 46%
    12:00 +10°C° 0 mm 3 mps 677 mmHg 38%
    13:00 +10°C° 0 mm 4 mps 677 mmHg 39%
    14:00 +10°C° 0 mm 4 mps 677 mmHg 40%
    15:00 +10°C° 0 mm 4 mps 677 mmHg 41%
    16:00 +9°C° 0 mm 3 mps 676 mmHg 50%
    17:00 +7°C° 0 mm 3 mps 676 mmHg 59%
    18:00 +6°C° 0 mm 2 mps 676 mmHg 68%
    19:00 +6°C° 0 mm 1 mps 676 mmHg 72%
    20:00 +5°C° 0 mm 1 mps 676 mmHg 76%
    21:00 +5°C° 0 mm 1 mps 675 mmHg 81%
    22:00 +4°C° 0 mm 1 mps 675 mmHg 81%
    23:00 +4°C° 0 mm 1 mps 675 mmHg 81%
    Show more